GW3780 Weather Reports


Display with metric or nautical units.
time (UTC)temp
F
wind
direction
speed
MPH
gust
MPH
rain 1hr
in
rain 24hr
in
rain mn
in
humidity
%
barometer
mb
20260505184108 83 194 4.0 5.0 0.00 0.00 0.00 31 1013.7
20260505183605 83 256 1.0 6.0 0.00 0.00 0.00 31 1013.8
20260505183103 83 266 4.0 6.0 0.00 0.00 0.00 31 1013.9
20260505182559 83 154 3.0 8.0 0.00 0.00 0.00 32 1013.9
20260505182056 84 250 1.0 4.0 0.00 0.00 0.00 31 1013.9
20260505181552 83 242 3.0 8.0 0.00 0.00 0.00 32 1014.2
20260505181050 82 159 2.0 6.0 0.00 0.00 0.00 33 1014.2
20260505180545 83 250 1.0 6.0 0.00 0.00 0.00 33 1014.3
20260505180043 82 210 3.0 5.0 0.00 0.00 0.00 33 1014.1
20260505175538 82 265 2.0 6.0 0.00 0.00 0.00 34 1014.3
20260505175035 82 240 1.0 3.0 0.00 0.00 0.00 35 1014.3
20260505174532 82 225 5.0 5.0 0.00 0.00 0.00 36 1014.3
20260505174028 82 293 1.0 4.0 0.00 0.00 0.00 39 1014.2
20260505173525 81 209 2.0 7.0 0.00 0.00 0.00 38 1014.5
20260505173022 80 268 3.0 6.0 0.00 0.00 0.00 40 1014.4
20260505172520 81 199 2.0 4.0 0.00 0.00 0.00 40 1014.6
20260505172015 80 228 2.0 5.0 0.00 0.00 0.00 40 1014.5
20260505171511 80 195 4.0 5.0 0.00 0.00 0.00 41 1014.9
20260505171008 80 182 2.0 9.0 0.00 0.00 0.00 40 1014.9
20260505170505 80 224 2.0 2.0 0.00 0.00 0.00 42 1014.7
20260505170000 79 191 0.0 6.0 0.00 0.00 0.00 43 1014.8
20260505165456 79 221 2.0 5.0 0.00 0.00 0.00 42 1015.1
20260505164952 79 211 3.0 5.0 0.00 0.00 0.00 42 1015.0
20260505164448 78 260 2.0 6.0 0.00 0.00 0.00 42 1014.8
20260505163946 78 208 1.0 4.0 0.00 0.00 0.00 41 1015.2
20260505163445 79 248 2.0 3.0 0.00 0.00 0.00 43 1015.0
20260505162944 78 252 2.0 4.0 0.00 0.00 0.00 44 1015.0
20260505162439 78 242 3.0 4.0 0.00 0.00 0.00 44 1015.2
20260505161936 77 219 3.0 6.0 0.00 0.00 0.00 43 1015.1
20260505161433 77 238 2.0 3.0 0.00 0.00 0.00 45 1015.3
20260505160930 77 216 2.0 3.0 0.00 0.00 0.00 46 1015.5
20260505160429 78 200 3.0 4.0 0.00 0.00 0.00 49 1015.6
20260505152904 74 187 1.0 3.0 0.00 0.00 0.00 52 1015.9
20260505152401 74 265 4.0 6.0 0.00 0.00 0.00 51 1015.9
20260505151855 74 196 0.0 4.0 0.00 0.00 0.00 52 1015.8
20260505151352 73 262 2.0 3.0 0.00 0.00 0.00 52 1016.1
20260505150849 73 222 3.0 4.0 0.00 0.00 0.00 52 1015.8
20260505150346 73 186 0.0 6.0 0.00 0.00 0.00 53 1016.2
20260505140311 69 209 1.0 4.0 0.00 0.00 0.00 58 1015.7
20260505130234 66 197 2.0 5.0 0.00 0.00 0.00 63 1016.2
20260505124725 65 273 1.0 2.0 0.00 0.00 0.00 66 1016.2
20260505124222 64 217 2.0 4.0 0.00 0.00 0.00 67 1015.9
20260505123717 64 205 2.0 6.0 0.00 0.00 0.00 68 1016.1
20260505123214 63 212 3.0 4.0 0.00 0.00 0.00 68 1015.8
20260505122711 62 199 5.0 6.0 0.00 0.00 0.00 70 1016.2
20260505122208 62 188 2.0 3.0 0.00 0.00 0.00 71 1016.1
20260505121704 62 282 2.0 3.0 0.00 0.00 0.00 72 1015.9
20260505121201 62 206 1.0 5.0 0.00 0.00 0.00 71 1016.1
20260505120657 62 232 3.0 5.0 0.00 0.00 0.00 72 1016.1
20260505120153 61 253 0.0 6.0 0.00 0.00 0.00 72 1015.8
20260505115647 61 249 0.0 3.0 0.00 0.00 0.00 73 1015.6
20260505115145 61 223 3.0 3.0 0.00 0.00 0.00 73 1015.6
20260505114642 61 193 3.0 5.0 0.00 0.00 0.00 74 1015.7
20260505114138 60 169 2.0 5.0 0.00 0.00 0.00 74 1015.6
20260505113635 60 265 2.0 3.0 0.00 0.00 0.00 74 1015.5
20260505113131 60 280 0.0 5.0 0.00 0.00 0.00 74 1015.4
20260505112627 60 225 4.0 6.0 0.00 0.00 0.00 74 1015.5
20260505112126 60 265 2.0 5.0 0.00 0.00 0.00 74 1015.5
20260505111620 60 231 2.0 2.0 0.00 0.00 0.00 75 1015.3
20260505111116 60 180 2.0 4.0 0.00 0.00 0.00 75 1015.6
20260505110612 60 228 2.0 4.0 0.00 0.00 0.00 75 1015.2
20260505110109 60 212 3.0 3.0 0.00 0.00 0.00 75 1015.1
20260505102045 59 252 1.0 4.0 0.00 0.00 0.00 75 1015.2
20260505101543 59 296 1.0 4.0 0.00 0.00 0.00 75 1014.7
20260505101039 59 184 1.0 3.0 0.00 0.00 0.00 75 1014.9
20260505100536 59 218 2.0 4.0 0.00 0.00 0.00 75 1014.8
20260505100033 59 238 1.0 4.0 0.00 0.00 0.00 75 1015.1
20260505095529 60 204 0.0 3.0 0.00 0.00 0.00 74 1014.9
20260505095026 60 195 3.0 6.0 0.00 0.00 0.00 74 1014.8
20260505094522 60 280 1.0 2.0 0.00 0.00 0.00 74 1015.0
20260505094019 60 135 0.0 2.0 0.00 0.00 0.00 74 1014.9
20260505093515 60 267 0.0 3.0 0.00 0.00 0.00 73 1014.9
20260505093013 60 256 3.0 3.0 0.00 0.00 0.00 73 1014.7
20260505092510 60 259 1.0 5.0 0.00 0.00 0.00 72 1015.0
20260505092008 61 164 2.0 4.0 0.00 0.00 0.00 72 1014.9
20260505091505 61 251 1.0 4.0 0.00 0.00 0.00 72 1014.9
20260505091003 61 174 2.0 3.0 0.00 0.00 0.00 71 1014.8
20260505090501 61 148 0.0 4.0 0.00 0.00 0.00 71 1014.6
20260505085958 61 212 1.0 5.0 0.00 0.00 0.00 71 1014.6
20260505085456 61 188 3.0 4.0 0.00 0.00 0.00 70 1014.8
20260505084954 61 268 2.0 5.0 0.00 0.00 0.00 70 1014.7
20260505084452 62 142 0.0 4.0 0.00 0.00 0.00 70 1014.8
20260505083949 62 174 2.0 6.0 0.00 0.00 0.00 69 1014.7
20260505083446 62 147 1.0 3.0 0.00 0.00 0.00 69 1014.6
20260505082942 62 221 0.0 3.0 0.00 0.00 0.00 68 1014.3
20260505082438 62 235 0.0 4.0 0.00 0.00 0.00 68 1014.7
20260505081936 62 173 3.0 6.0 0.00 0.00 0.00 68 1014.6
20260505081432 62 228 2.0 4.0 0.00 0.00 0.00 68 1014.7
20260505080929 62 221 1.0 5.0 0.00 0.00 0.00 67 1014.7
20260505080425 62 178 2.0 3.0 0.00 0.00 0.00 67 1014.6
20260505075920 62 238 2.0 3.0 0.00 0.00 0.00 67 1014.5
20260505075418 62 242 0.0 4.0 0.00 0.00 0.00 67 1014.4
20260505074915 62 195 4.0 6.0 0.00 0.00 0.00 66 1014.6
20260505074412 62 234 0.0 3.0 0.00 0.00 0.00 66 1014.7
20260505073909 63 242 1.0 3.0 0.00 0.00 0.00 65 1014.6
20260505073407 63 218 1.0 4.0 0.00 0.00 0.00 65 1014.4
20260505072904 63 211 2.0 4.0 0.00 0.00 0.00 64 1014.4
20260505072400 63 209 3.0 3.0 0.00 0.00 0.00 64 1014.4
20260505071856 63 236 2.0 4.0 0.00 0.00 0.00 63 1014.5
20260505071352 63 53 0.0 3.0 0.00 0.00 0.00 63 1014.4
20260505070851 63 172 3.0 3.0 0.00 0.00 0.00 62 1014.1
20260505070347 63 201 1.0 4.0 0.00 0.00 0.00 62 1014.5
20260505065842 63 63 1.0 3.0 0.00 0.00 0.00 61 1014.1
20260505065339 63 228 0.0 4.0 0.00 0.00 0.00 61 1014.3
20260505064836 63 300 1.0 4.0 0.00 0.00 0.00 61 1014.4
20260505064333 63 158 2.0 3.0 0.00 0.00 0.00 60 1014.3
20260505063832 64 264 2.0 3.0 0.00 0.00 0.00 60 1014.1
20260505063327 64 214 3.0 4.0 0.00 0.00 0.00 59 1014.1
20260505062824 64 162 1.0 4.0 0.00 0.00 0.00 59 1014.0
20260505062321 64 202 8.0 9.0 0.00 0.00 0.00 58 1014.0
20260505061818 64 257 3.0 4.0 0.00 0.00 0.00 58 1014.1
20260505061316 64 206 6.0 6.0 0.00 0.00 0.00 58 1014.0
20260505060813 64 202 2.0 3.0 0.00 0.00 0.00 57 1014.1
20260505060310 64 162 2.0 3.0 0.00 0.00 0.00 57 1014.2
20260505055806 64 260 0.0 7.0 0.00 0.00 0.00 56 1014.1
20260505055303 64 228 2.0 4.0 0.00 0.00 0.00 55 1014.2
20260505054800 64 209 3.0 5.0 0.00 0.00 0.00 55 1014.2
20260505054257 65 159 2.0 4.0 0.00 0.00 0.00 55 1014.3
20260505053755 65 310 0.0 4.0 0.00 0.00 0.00 54 1014.2
20260505053252 65 329 0.0 2.0 0.00 0.00 0.00 54 1014.2
20260505052749 65 258 2.0 4.0 0.00 0.00 0.00 53 1014.3
20260505052246 66 206 3.0 6.0 0.00 0.00 0.00 52 1014.0
20260505051742 66 9 0.0 4.0 0.00 0.00 0.00 52 1014.4
20260505051241 66 238 2.0 3.0 0.00 0.00 0.00 51 1014.3
20260505050738 66 245 2.0 3.0 0.00 0.00 0.00 51 1014.2
20260505050237 66 227 2.0 3.0 0.00 0.00 0.00 51 1013.9
20260505041706 66 285 0.0 3.0 0.00 0.00 0.00 51 1013.7
20260505041204 66 228 2.0 3.0 0.00 0.00 0.00 51 1013.8
20260505040701 66 236 2.0 3.0 0.00 0.00 0.00 51 1013.6
20260505040158 66 227 2.0 2.0 0.00 0.00 0.00 52 1013.5
20260505035654 66 218 1.0 2.0 0.00 0.00 0.00 51 1013.7
20260505035150 66 199 2.0 2.0 0.00 0.00 0.00 51 1013.7
20260505034647 66 269 0.0 3.0 0.00 0.00 0.00 51 1013.6
20260505034144 66 309 0.0 2.0 0.00 0.00 0.00 50 1013.7
20260505033640 66 153 0.0 3.0 0.00 0.00 0.00 51 1013.7
20260505033139 66 255 1.0 2.0 0.00 0.00 0.00 51 1013.7
20260505032637 67 224 3.0 4.0 0.00 0.00 0.00 50 1013.8
20260505032133 67 240 1.0 1.0 0.00 0.00 0.00 50 1013.7
20260505031630 67 291 1.0 1.0 0.00 0.00 0.00 50 1013.7
20260505031126 67 305 0.0 2.0 0.00 0.00 0.00 49 1013.7
20260505030623 67 253 2.0 2.0 0.00 0.00 0.00 49 1013.8
20260505030119 67 223 2.0 2.0 0.00 0.00 0.00 49 1013.7
20260505025615 67 309 0.0 2.0 0.00 0.00 0.00 49 1014.0
20260505025114 67 256 0.0 2.0 0.00 0.00 0.00 49 1013.9
20260505024611 68 311 1.0 2.0 0.00 0.00 0.00 49 1013.8
20260505024108 68 186 0.0 2.0 0.00 0.00 0.00 48 1013.9
20260505023605 68 224 0.0 2.0 0.00 0.00 0.00 48 1013.9
20260505023103 68 204 0.0 3.0 0.00 0.00 0.00 48 1013.6
20260505022600 68 214 2.0 4.0 0.00 0.00 0.00 47 1013.6
20260505022057 68 280 1.0 2.0 0.00 0.00 0.00 48 1013.6
20260505021553 68 217 0.0 2.0 0.00 0.00 0.00 48 1013.7
20260505021050 69 315 0.0 2.0 0.00 0.00 0.00 48 1013.8
20260505020550 69 232 2.0 2.0 0.00 0.00 0.00 47 1013.7
20260505020047 69 252 0.0 1.0 0.00 0.00 0.00 48 1013.6
20260505015544 69 248 0.0 2.0 0.00 0.00 0.00 47 1013.6
20260505015041 69 250 1.0 1.0 0.00 0.00 0.00 47 1013.5
20260505014538 69 317 0.0 2.0 0.00 0.00 0.00 46 1013.7
20260505014035 69 219 0.0 2.0 0.00 0.00 0.00 46 1013.6
20260505013532 70 251 1.0 2.0 0.00 0.00 0.00 46 1013.3
20260505013030 69 191 0.0 3.0 0.00 0.00 0.00 46 1013.5
20260505012527 69 208 0.0 2.0 0.00 0.00 0.00 46 1013.3
20260505012025 69 256 1.0 2.0 0.00 0.00 0.00 46 1013.2
20260505011520 70 237 0.0 1.0 0.00 0.00 0.00 46 1013.3
20260505011017 70 208 0.0 3.0 0.00 0.00 0.00 46 1013.0
20260505010512 70 283 0.0 1.0 0.00 0.00 0.00 45 1013.1
20260505010009 70 338 0.0 2.0 0.00 0.00 0.00 45 1012.9
20260505005506 71 228 0.0 3.0 0.00 0.00 0.00 44 1013.0
20260505005004 71 213 2.0 2.0 0.00 0.00 0.00 44 1012.8
20260505004501 71 290 0.0 2.0 0.00 0.00 0.00 44 1012.4
20260505003957 71 162 0.0 2.0 0.00 0.00 0.00 43 1012.8
20260505003454 71 222 1.0 3.0 0.00 0.00 0.00 43 1012.8
20260505002950 71 272 0.0 1.0 0.00 0.00 0.00 43 1012.8
20260505002446 72 218 0.0 2.0 0.00 0.00 0.00 42 1012.9
20260505001945 72 134 0.0 3.0 0.00 0.00 0.00 42 1012.9
20260505001442 72 249 0.0 1.0 0.00 0.00 0.00 42 1013.0
20260505000939 72 315 0.0 1.0 0.00 0.00 0.00 42 1012.5
20260505000437 72 290 0.0 1.0 0.00 0.00 0.00 41 1013.3
20260504235934 72 269 0.0 2.0 0.00 0.00 0.00 42 1013.2
20260504235431 72 184 2.0 3.0 0.00 0.00 0.00 41 1013.0
20260504234927 73 315 0.0 2.0 0.00 0.00 0.00 41 1013.1
20260504234425 73 245 1.0 2.0 0.00 0.00 0.00 40 1013.0
20260504233921 73 250 2.0 3.0 0.00 0.00 0.00 39 1012.9
20260504233417 73 320 0.0 1.0 0.00 0.00 0.00 40 1012.9
20260504232914 73 207 4.0 4.0 0.00 0.00 0.00 39 1012.8
20260504232411 73 253 0.0 2.0 0.00 0.00 0.00 39 1012.9
20260504231908 73 250 1.0 1.0 0.00 0.00 0.00 38 1012.9
20260504231404 73 190 1.0 2.0 0.00 0.00 0.00 39 1012.7
20260504230901 74 234 2.0 2.0 0.00 0.00 0.00 37 1012.5
20260504230358 74 311 1.0 2.0 0.00 0.00 0.00 37 1012.7
20260504225856 74 256 5.0 5.0 0.00 0.00 0.00 36 1012.4
20260504225352 75 229 2.0 3.0 0.00 0.00 0.00 37 1012.7
20260504224850 75 275 1.0 3.0 0.00 0.00 0.00 36 1012.7
20260504224347 75 227 1.0 2.0 0.00 0.00 0.00 36 1012.7
20260504223844 75 210 2.0 4.0 0.00 0.00 0.00 35 1012.8
20260504223339 75 276 1.0 4.0 0.00 0.00 0.00 35 1013.1
20260504222836 75 172 1.0 4.0 0.00 0.00 0.00 35 1012.9
20260504222333 75 252 1.0 4.0 0.00 0.00 0.00 35 1012.8
20260504221831 76 321 0.0 5.0 0.00 0.00 0.00 35 1012.7
20260504221327 76 234 3.0 6.0 0.00 0.00 0.00 34 1012.8
20260504220825 76 287 3.0 4.0 0.00 0.00 0.00 34 1012.7
20260504220321 76 208 2.0 4.0 0.00 0.00 0.00 35 1012.7
20260504215819 76 197 2.0 6.0 0.00 0.00 0.00 35 1012.7
20260504215315 76 220 4.0 8.0 0.00 0.00 0.00 34 1012.6
20260504214811 76 200 2.0 2.0 0.00 0.00 0.00 34 1012.8
20260504214308 76 243 3.0 6.0 0.00 0.00 0.00 34 1012.6
20260504213805 76 220 1.0 3.0 0.00 0.00 0.00 34 1012.8
20260504213301 76 305 2.0 3.0 0.00 0.00 0.00 34 1012.5
20260504212758 76 227 2.0 5.0 0.00 0.00 0.00 33 1012.7
20260504212249 76 276 2.0 5.0 0.00 0.00 0.00 34 1012.8
20260504211746 76 250 3.0 6.0 0.00 0.00 0.00 34 1012.8
20260504211242 77 212 0.0 4.0 0.00 0.00 0.00 34 1012.7
20260504210740 77 249 1.0 3.0 0.00 0.00 0.00 34 1012.6
20260504210237 77 124 0.0 2.0 0.00 0.00 0.00 34 1012.7
20260504205734 76 190 2.0 4.0 0.00 0.00 0.00 36 1012.8
20260504205232 76 193 1.0 4.0 0.00 0.00 0.00 35 1012.6
20260504204730 76 281 1.0 7.0 0.00 0.00 0.00 34 1012.7
20260504204228 76 258 2.0 6.0 0.00 0.00 0.00 34 1012.6
20260504203727 76 245 1.0 5.0 0.00 0.00 0.00 34 1012.9
20260504203224 76 214 2.0 2.0 0.00 0.00 0.00 34 1012.9
20260504202724 76 222 2.0 3.0 0.00 0.00 0.00 34 1013.0
20260504202221 76 180 0.0 4.0 0.00 0.00 0.00 35 1013.0
20260504201718 76 300 0.0 3.0 0.00 0.00 0.00 34 1013.0
20260504201215 76 269 2.0 4.0 0.00 0.00 0.00 35 1013.3
20260504200713 76 325 1.0 2.0 0.00 0.00 0.00 34 1013.5
20260504200209 76 211 2.0 4.0 0.00 0.00 0.00 34 1013.3
20260504195705 75 153 0.0 4.0 0.00 0.00 0.00 36 1013.4
20260504195201 75 159 0.0 6.0 0.00 0.00 0.00 35 1013.4
20260504194658 75 213 3.0 4.0 0.00 0.00 0.00 35 1013.6
20260504194154 76 195 2.0 4.0 0.00 0.00 0.00 34 1013.5
20260504193651 75 212 3.0 6.0 0.00 0.00 0.00 34 1013.5
20260504193149 75 252 0.0 2.0 0.00 0.00 0.00 36 1013.6
20260504192647 75 329 1.0 5.0 0.00 0.00 0.00 36 1013.6
20260504192144 74 343 0.0 3.0 0.00 0.00 0.00 35 1013.9
20260504191643 74 324 2.0 4.0 0.00 0.00 0.00 36 1013.9
20260504191138 74 222 0.0 6.0 0.00 0.00 0.00 35 1014.0
20260504190634 74 249 1.0 4.0 0.00 0.00 0.00 34 1014.1
20260504190131 75 185 4.0 5.0 0.00 0.00 0.00 34 1014.1
20260504185628 75 189 1.0 4.0 0.00 0.00 0.00 35 1014.2
20260504185125 76 171 2.0 3.0 0.00 0.00 0.00 33 1014.4
20260504184620 75 269 0.0 4.0 0.00 0.00 0.00 34 1014.4